Torna al catalogo

SKYNET 5D

AttivoMilitareGEO
NORAD 39034·PAYLOAD·🇬🇧 United Kingdom

Lanciato Dec 19, 2012 da Guiana Space Centre

Loading…

TLE

AggiornatoSource: Space-Track

Epoca: Sep 14, 2026, 14:03 UTC

1 39034U 12075A   26257.58558772  .00000091  00000-0  00000-0 0  9993
2 39034   0.0768   7.3745 0003743 175.3526  74.3793  1.00273685 50059

Traccia SKYNET 5D in tempo reale con AllMySat

Download on the App Store